Weather History for Ahmadabad, India

Change the Weather History Date:

Tuesday, October 30, 2012

  Actual Average Record
Temperature  
Mean Temperature 78 °F -  
Max Temperature 93 °F 88 °F - ()
Min Temperature 63 °F 61 °F - ()
Cooling Degree Days 13    
Growing Degree Days 28 (Base 50)    
Moisture  
Dew Point 53 °F    
Average Humidity 46    
Maximum Humidity 73    
Minimum Humidity 10    
Precipitation  
Precipitation 0.00 in 0.02 in - ()
Sea Level Pressure  
Sea Level Pressure 29.87 in    
Wind  
Wind Speed 3 mph ()    
Max Wind Speed 12 mph    
Max Gust Speed -    
Visibility 2.6 miles    
Events      
T = Trace of Precipitation, MM = Missing Value Source: Averaged Metar Reports

Daily Weather History Graph

Daily Weather History Graph

Search for Another Location

Airport:

Trip Planner

Search our weather history database for the weather conditions in past years. The results will help you decide how hot, cold, wet, or windy it might be!

Date:

Astronomy

Oct. 30, 2012 Rise Set
Actual Time 6:43 AM IST 6:02 PM IST
Civil Twilight 6:20 AM IST 6:25 PM IST
Nautical Twilight 5:53 AM IST 6:52 PM IST
Astronomical Twilight 5:27 AM IST 7:18 PM IST
Moon 6:22 PM IST (10/30) 6:58 AM IST (10/30)
Length of Visible Light 12h 05m
Length of Day
11h 18m
Full, 100% of the Moon is Illuminated
Oct 30
Full
Nov 7
Last Quarter
Nov 14
New
Nov 20
First Quarter
Nov 28
Full

Hourly Weather History & Observations

Time (IST) Temp. Heat Index Dew Point Humidity Pressure Visibility Wind Dir Wind Speed Gust Speed Precip Events Conditions
12:10 AM 68.0 °F - 59.0 °F 73% 29.86 in 2.5 mi Calm Calm - N/A   Haze
12:40 AM 68.0 °F - 55.4 °F 64% 29.86 in 2.5 mi Calm Calm - N/A   Haze
1:10 AM 68.0 °F - 59.0 °F 73% 29.86 in 2.5 mi Calm Calm - N/A   Haze
1:40 AM 68.0 °F - 57.2 °F 68% 29.86 in 2.5 mi Calm Calm - N/A   Haze
2:10 AM 66.2 °F - 51.8 °F 60% 29.86 in 2.5 mi Calm Calm - N/A   Haze
2:30 AM 67 °F - 55 °F 56% 29.89 in 2 mi NNE 2.3 mph - -  
2:40 AM 68.0 °F - 51.8 °F 56% 29.86 in 2.5 mi Calm Calm - N/A   Haze
3:10 AM 68.0 °F - 51.8 °F 56% 29.86 in 2.5 mi Calm Calm - N/A   Haze
3:40 AM 66.2 °F - 51.8 °F 60% 29.86 in 2.5 mi Calm Calm - N/A   Haze
4:10 AM 64.4 °F - 53.6 °F 68% 29.89 in 2.5 mi Calm Calm - N/A   Haze
4:40 AM 64.4 °F - 51.8 °F 64% 29.89 in 2.5 mi NE 3.5 mph - N/A   Haze
5:10 AM 64.4 °F - 51.8 °F 64% 29.89 in 2.5 mi NE 3.5 mph - N/A   Haze
5:30 AM 65 °F - 54 °F 59% 29.91 in 2 mi Calm Calm - -  
5:40 AM 62.6 °F - 51.8 °F 68% 29.89 in 2.5 mi NNE 4.6 mph - N/A   Haze
6:10 AM 62.6 °F - 51.8 °F 68% 29.89 in 2.2 mi NE 4.6 mph - N/A   Haze
7:10 AM 62.6 °F - 51.8 °F 68% 29.92 in 1.9 mi NNE 4.6 mph - N/A   Haze
7:40 AM 64.4 °F - 51.8 °F 64% 29.92 in 1.9 mi ENE 4.6 mph - N/A   Haze
8:30 AM 72 °F - 53 °F 41% 29.95 in 2 mi NE 2.3 mph - -   Smoke
8:40 AM 73.4 °F - 51.8 °F 47% 29.95 in 2.2 mi NE 4.6 mph - N/A   Smoke
9:10 AM 78.8 °F - 51.8 °F 39% 29.95 in 2.2 mi ENE 11.5 mph - N/A   Smoke
9:40 AM 80.6 °F 80.3 °F 53.6 °F 39% 29.95 in 2.2 mi East 9.2 mph - N/A   Smoke
10:10 AM 84.2 °F 82.8 °F 53.6 °F 35% 29.95 in 2.5 mi ENE 9.2 mph - N/A   Smoke
10:40 AM 87.8 °F 86.1 °F 55.4 °F 33% 29.92 in 2.5 mi East 9.2 mph - N/A   Smoke
11:30 AM 88 °F - 54 °F 22% 29.94 in 2 mi NE 4.6 mph - -  
11:40 AM 91.4 °F 89.4 °F 55.4 °F 29% 29.89 in 3.1 mi East 9.2 mph - N/A   Smoke
12:10 PM 93.2 °F 91.3 °F 55.4 °F 28% 29.89 in 3.1 mi East 10.4 mph - N/A   Smoke
12:40 PM 93.2 °F 90.8 °F 53.6 °F 26% 29.86 in 3.1 mi East 10.4 mph - N/A   Smoke
1:10 PM 95.0 °F - 50.0 °F 22% 29.83 in 3.1 mi East 10.4 mph - N/A   Smoke
1:40 PM 95.0 °F - 51.8 °F 23% 29.83 in 3.1 mi ENE 8.1 mph - N/A   Smoke
2:10 PM 95.0 °F - 48.2 °F 20% 29.80 in 3.7 mi ENE 9.2 mph - N/A   Unknown
2:30 PM 93 °F - 44 °F 10% 29.85 in 2 mi NE 5.8 mph - -  
2:40 PM 95.0 °F - 50.0 °F 22% 29.80 in 3.7 mi ENE 8.1 mph - N/A   Unknown
3:40 PM 95.0 °F - 48.2 °F 20% 29.80 in 3.7 mi ENE 6.9 mph - N/A   Unknown
4:10 PM 95.0 °F - 48.2 °F 20% 29.80 in 3.7 mi ENE 6.9 mph - N/A   Unknown
4:40 PM 93.2 °F - 48.2 °F 21% 29.80 in 3.7 mi ENE 4.6 mph - N/A   Unknown
5:10 PM 91.4 °F - 48.2 °F 23% 29.80 in 3.7 mi Calm Calm - N/A   Unknown
5:30 PM 89 °F - 51 °F 17% 29.84 in 2 mi NE 3.5 mph - -   Clear
6:40 PM 84.2 °F - 50.0 °F 30% 29.83 in 2.5 mi Calm Calm - N/A   Smoke
7:10 PM - - - N/A% - - North - - N/A   Unknown
7:40 PM - - - N/A% - - North - - N/A   Unknown
8:10 PM - - - N/A% - - North - - N/A   Unknown
8:30 PM 72 °F - 58 °F 53% 29.87 in 2 mi Calm Calm - -   Haze
8:40 PM 75.2 °F - 55.4 °F 50% 29.86 in 2.5 mi Calm Calm - N/A   Smoke
9:10 PM 73.4 °F - 57.2 °F 57% 29.86 in 2.5 mi Calm Calm - N/A   Smoke
9:40 PM 71.6 °F - 55.4 °F 57% 29.86 in 2.5 mi Calm Calm - N/A   Smoke
10:10 PM 71.6 °F - 55.4 °F 57% 29.86 in 2.5 mi Calm Calm - N/A   Smoke
10:40 PM 69.8 °F - 55.4 °F 60% 29.86 in 2.5 mi Calm Calm - N/A   Smoke
11:10 PM 69.8 °F - 55.4 °F 60% 29.86 in 2.5 mi Calm Calm - N/A   Smoke
11:30 PM 68 °F - 58 °F 61% 29.87 in 2 mi North 2.3 mph - -   Haze